FW2471 Weather Reports


time (UTC)temp
C
wind
direction
speed
KPH
gust
KPH
rain 1hr
cm
rain 24hr
cm
rain mn
cm
humidity
%
barometer
mb
20260506025606 10 164 3.2 9.7 0.00 0.00 0.00 47 1017.0
20260506025106 10 79 3.2 19.3 0.00 0.00 0.00 46 1016.8
20260506024606 10 62 0.0 19.3 0.00 0.00 0.00 46 1017.0
20260506024106 10 102 3.2 14.5 0.00 0.00 0.00 47 1016.9
20260506023605 10 39 4.8 9.7 0.00 0.00 0.00 47 1016.8
20260506023105 10 152 4.8 9.7 0.00 0.00 0.00 47 1016.8
20260506022104 11 340 4.8 24.1 0.00 0.00 0.00 48 1016.6
20260506021604 10 152 8.0 24.1 0.00 0.00 0.00 48 1016.5
20260506021104 10 23 1.6 19.3 0.00 0.00 0.00 49 1016.4
20260506020604 11 114 3.2 19.3 0.00 0.00 0.00 48 1016.3
20260506020105 11 299 6.4 16.1 0.00 0.00 0.00 48 1016.3
20260506014604 11 214 6.4 20.9 0.00 0.00 0.00 47 1016.0
20260506014103 11 131 3.2 20.9 0.00 0.00 0.00 47 1016.0
20260506013103 11 149 3.2 16.1 0.00 0.00 0.00 46 1015.9
20260506012604 11 55 6.4 16.1 0.00 0.00 0.00 45 1015.9
20260506011605 11 355 3.2 14.5 0.00 0.00 0.00 46 1015.9
20260506010603 11 86 3.2 16.1 0.00 0.00 0.00 47 1015.9
20260506005602 11 63 12.9 19.3 0.00 0.00 0.00 48 1016.0
20260506005102 11 140 4.8 9.7 0.00 0.00 0.00 50 1015.8
20260506004604 11 79 1.6 11.3 0.00 0.00 0.00 50 1015.8
20260506004102 11 220 3.2 11.3 0.00 0.00 0.00 49 1015.6
20260506003601 11 47 1.6 17.7 0.00 0.00 0.00 50 1015.9
20260506003101 11 24 6.4 17.7 0.00 0.00 0.00 50 1015.8
20260506002601 11 116 8.0 19.3 0.00 0.00 0.00 51 1015.9
20260506002101 11 61 4.8 19.3 0.00 0.00 0.00 51 1015.8
20260506001602 11 151 6.4 30.6 0.00 0.00 0.00 52 1016.0
20260506000601 11 111 4.8 29.0 0.00 0.00 0.00 52 1015.8
20260505235601 11 131 6.4 20.9 0.00 0.00 0.00 52 1015.9
20260505235100 11 113 6.4 25.7 0.00 0.00 0.00 53 1015.8
20260505234601 11 111 8.0 35.4 0.00 0.00 0.00 52 1015.8
20260505234100 11 302 11.3 35.4 0.00 0.00 0.00 53 1016.0
20260505233600 11 59 9.7 25.7 0.00 0.00 0.00 52 1015.8
20260505233100 11 148 6.4 25.7 0.00 0.00 0.00 53 1015.6
20260505232601 11 251 6.4 20.9 0.00 0.00 0.00 52 1015.8
20260505232101 11 120 9.7 20.9 0.00 0.00 0.00 52 1015.6
20260505231100 11 300 8.0 22.5 0.00 0.00 0.00 53 1015.9
20260505230605 11 149 8.0 29.0 0.00 0.00 0.00 53 1015.9
20260505230101 12 321 12.9 29.0 0.00 0.00 0.00 53 1015.9
20260505225559 12 102 6.4 25.7 0.00 0.00 0.00 55 1016.0
20260505225059 12 288 4.8 20.9 0.00 0.00 0.00 53 1015.8
20260505224559 12 72 8.0 27.4 0.00 0.00 0.00 54 1015.9
20260505224059 12 109 12.9 27.4 0.00 0.00 0.00 52 1015.9
20260505223559 12 107 8.0 32.2 0.00 0.00 0.00 53 1015.8
20260505223058 12 114 12.9 32.2 0.00 0.00 0.00 52 1015.6
20260505221559 12 121 11.3 29.0 0.00 0.00 0.00 51 1015.8
20260505221059 12 214 4.8 29.0 0.00 0.00 0.00 52 1016.0
20260505220558 12 104 11.3 22.5 0.00 0.00 0.00 51 1015.9
20260505220057 12 155 9.7 24.1 0.00 0.00 0.00 53 1015.9
20260505215559 12 68 8.0 24.1 0.00 0.00 0.00 53 1016.1
20260505215059 12 140 9.7 24.1 0.00 0.00 0.00 53 1016.1
20260505214558 12 69 4.8 24.1 0.00 0.00 0.00 55 1016.0
20260505213057 12 123 6.4 30.6 0.00 0.00 0.00 54 1016.3
20260505212557 12 124 14.5 32.2 0.00 0.00 0.00 54 1016.8
20260505212056 12 92 9.7 32.2 0.00 0.00 0.00 54 1016.5
20260505211558 12 110 12.9 32.2 0.00 0.00 0.00 53 1016.5
20260505211058 12 56 14.5 32.2 0.00 0.00 0.00 53 1016.5
20260505210556 12 305 8.0 27.4 0.00 0.00 0.00 55 1016.9
20260505205556 12 63 9.7 29.0 0.00 0.00 0.00 56 1016.6
20260505204557 12 124 8.0 27.4 0.00 0.00 0.00 59 1016.9
20260505203556 11 41 8.0 33.8 0.00 0.00 0.00 60 1016.9
20260505203055 11 227 14.5 33.8 0.00 0.00 0.00 60 1017.3
20260505202556 11 80 11.3 30.6 0.00 0.00 0.00 59 1017.0
20260505202055 11 149 4.8 30.6 0.00 0.00 0.00 63 1017.1
20260505201556 11 54 9.7 24.1 0.00 0.00 0.00 63 1017.3
20260505201055 11 82 9.7 24.1 0.00 0.00 0.00 65 1017.1
20260505200555 10 117 8.0 25.7 0.00 0.00 0.00 71 1017.1
20260505200055 10 65 6.4 25.7 0.00 0.00 0.00 69 1017.4
20260505195055 10 142 8.0 24.1 0.00 0.00 0.00 68 1017.6
20260505194054 10 103 9.7 24.1 0.00 0.00 0.00 66 1017.4
20260505193554 10 79 9.7 29.0 0.00 0.00 0.00 70 1017.5
20260505193054 11 182 12.9 29.0 0.00 0.00 0.00 63 1017.5
20260505192555 11 333 8.0 30.6 0.00 0.00 0.00 63 1017.4
20260505192055 11 109 11.3 30.6 0.00 0.00 0.00 63 1017.5
20260505191555 11 47 4.8 32.2 0.00 0.00 0.00 59 1017.4
20260505191054 11 55 11.3 32.2 0.00 0.00 0.00 58 1017.6
20260505190555 11 89 9.7 27.4 0.00 0.00 0.00 56 1017.6
20260505185054 12 87 9.7 27.4 0.00 0.00 0.00 51 1017.6
20260505184555 13 99 11.3 27.4 0.00 0.00 0.00 47 1017.6
20260505184054 13 32 9.7 27.4 0.00 0.00 0.00 47 1017.1
20260505183554 13 18 11.3 27.4 0.00 0.00 0.00 47 1017.1
20260505182554 12 58 6.4 33.8 0.00 0.00 0.00 48 1017.3
20260505182054 12 82 14.5 37.0 0.00 0.00 0.00 49 1017.5
20260505181053 12 18 11.3 32.2 0.00 0.00 0.00 47 1017.8
20260505180555 13 42 14.5 32.2 0.00 0.00 0.00 46 1017.8
20260505180054 13 86 14.5 32.2 0.00 0.00 0.00 46 1017.8
20260505175554 13 137 12.9 32.2 0.00 0.00 0.00 45 1017.5
20260505175053 14 124 8.0 32.2 0.00 0.00 0.00 45 1017.4
20260505174553 13 68 11.3 22.5 0.00 0.00 0.00 49 1017.4
20260505174053 13 141 9.7 35.4 0.00 0.00 0.00 47 1017.4
20260505173553 13 358 19.3 35.4 0.00 0.00 0.00 46 1017.6
20260505172553 14 54 14.5 33.8 0.00 0.00 0.00 43 1017.4
20260505171553 13 209 9.7 19.3 0.00 0.00 0.00 41 1017.5
20260505171052 13 106 4.8 33.8 0.00 0.00 0.00 43 1017.6
20260505170552 13 86 17.7 33.8 0.00 0.00 0.00 40 1017.4
20260505170049 13 141 9.7 45.1 0.00 0.00 0.00 42 1017.6
20260505165552 12 38 8.0 45.1 0.00 0.00 0.00 41 1017.4
20260505165052 13 92 14.5 38.6 0.00 0.00 0.00 42 1017.1
20260505164552 12 63 11.3 22.5 0.00 0.00 0.00 39 1017.4
20260505164051 12 104 6.4 19.3 0.00 0.00 0.00 43 1017.1
20260505163552 12 76 8.0 25.7 0.00 0.00 0.00 40 1017.5
20260505163051 12 75 9.7 35.4 0.00 0.00 0.00 40 1017.4
20260505162051 12 80 12.9 29.0 0.00 0.00 0.00 39 1017.6
20260505161051 13 78 9.7 33.8 0.00 0.00 0.00 37 1017.4
20260505160551 12 75 3.2 22.5 0.00 0.00 0.00 40 1017.6
20260505152050 12 79 9.7 24.1 0.00 0.00 0.00 40 1017.3
20260505151549 12 17 14.5 27.4 0.00 0.00 0.00 41 1017.3
20260505151048 11 92 9.7 37.0 0.00 0.00 0.00 43 1016.9
20260505150549 11 100 9.7 37.0 0.00 0.00 0.00 45 1017.3
20260505140547 10 130 6.4 30.6 0.00 0.00 0.00 49 1017.4
20260505124545 10 80 9.7 22.5 0.00 0.00 0.00 47 1015.9
20260505124045 10 69 8.0 27.4 0.00 0.00 0.00 48 1015.9
20260505122545 10 127 11.3 32.2 0.00 0.00 0.00 47 1015.4
20260505122044 10 125 14.5 32.2 0.00 0.00 0.00 47 1015.4
20260505121545 10 316 11.3 27.4 0.00 0.00 0.00 47 1015.4
20260505115543 10 196 6.4 22.5 0.00 0.00 0.00 47 1015.4
20260505115043 10 85 12.9 27.4 0.00 0.00 0.00 47 1015.0
20260505114545 10 11 9.7 27.4 0.00 0.00 0.00 46 1015.0
20260505114045 10 110 9.7 27.4 0.00 0.00 0.00 46 1015.1
20260505113544 10 100 8.0 24.1 0.00 0.00 0.00 46 1015.1
20260505113044 10 99 12.9 27.4 0.00 0.00 0.00 45 1015.1
20260505112543 10 75 12.9 38.6 0.00 0.00 0.00 46 1015.1
20260505112043 10 111 4.8 38.6 0.00 0.00 0.00 46 1015.1
20260505111544 10 85 11.3 25.7 0.00 0.00 0.00 46 1015.1
20260505111042 11 118 12.9 25.7 0.00 0.00 0.00 45 1014.9
20260505110543 11 148 9.7 22.5 0.00 0.00 0.00 45 1015.0
20260505102042 11 131 6.4 25.7 0.00 0.00 0.00 44 1015.0
20260505101541 11 86 11.3 25.7 0.00 0.00 0.00 43 1014.9
20260505101042 11 86 6.4 24.1 0.00 0.00 0.00 43 1015.1
20260505100541 11 144 9.7 30.6 0.00 0.00 0.00 43 1015.0
20260505095541 11 89 9.7 24.1 0.00 0.00 0.00 42 1015.3
20260505095040 11 96 9.7 27.4 0.00 0.00 0.00 41 1015.3
20260505094541 11 107 14.5 35.4 0.00 0.00 0.00 41 1015.5
20260505093543 11 68 9.7 25.7 0.00 0.00 0.00 41 1015.3
20260505093042 11 135 6.4 25.7 0.00 0.00 0.00 40 1015.3
20260505092542 11 69 12.9 29.0 0.00 0.00 0.00 40 1015.4
20260505092041 11 99 12.9 29.0 0.00 0.00 0.00 40 1015.4
20260505091542 12 96 11.3 32.2 0.00 0.00 0.00 40 1015.3
20260505090542 12 45 6.4 25.7 0.00 0.00 0.00 40 1015.5
20260505090041 12 161 9.7 25.7 0.00 0.00 0.00 40 1015.4
20260505085541 12 168 12.9 32.2 0.00 0.00 0.00 39 1015.9
20260505085040 12 117 6.4 32.2 0.00 0.00 0.00 39 1016.0
20260505084541 12 113 9.7 22.5 0.00 0.00 0.00 39 1016.3
20260505084041 12 107 9.7 24.1 0.00 0.00 0.00 39 1016.1
20260505082540 12 61 8.0 27.4 0.00 0.00 0.00 39 1016.5
20260505082041 12 111 8.0 27.4 0.00 0.00 0.00 39 1016.6
20260505081541 12 82 9.7 25.7 0.00 0.00 0.00 39 1016.5
20260505081041 12 16 8.0 20.9 0.00 0.00 0.00 39 1016.6
20260505080040 12 135 11.3 27.4 0.00 0.00 0.00 39 1017.1
20260505075539 12 51 9.7 27.4 0.00 0.00 0.00 39 1016.9
20260505075039 12 27 8.0 27.4 0.00 0.00 0.00 39 1016.9
20260505074040 12 353 4.8 19.3 0.00 0.00 0.00 41 1017.0
20260505073538 12 38 9.7 25.7 0.00 0.00 0.00 40 1016.9
20260505073038 12 113 8.0 25.7 0.00 0.00 0.00 39 1016.9
20260505072537 12 61 8.0 27.4 0.00 0.00 0.00 40 1017.3
20260505072037 12 20 9.7 27.4 0.00 0.00 0.00 40 1017.0
20260505071537 12 124 4.8 24.1 0.00 0.00 0.00 40 1017.0
20260505070537 12 92 9.7 25.7 0.00 0.00 0.00 40 1016.9
20260505065538 11 58 6.4 19.3 0.00 0.00 0.00 39 1016.8
20260505065037 11 92 6.4 24.1 0.00 0.00 0.00 39 1016.9
20260505064537 11 65 8.0 24.1 0.00 0.00 0.00 39 1017.0
20260505064038 11 97 6.4 17.7 0.00 0.00 0.00 40 1017.0
20260505063538 12 103 6.4 22.5 0.00 0.00 0.00 38 1017.1
20260505063038 12 124 9.7 22.5 0.00 0.00 0.00 37 1017.0
20260505062536 12 340 6.4 24.1 0.00 0.00 0.00 37 1017.0
20260505062032 12 262 6.4 24.1 0.00 0.00 0.00 35 1017.0
20260505061532 12 79 3.2 16.1 0.00 0.00 0.00 35 1017.1
20260505061031 12 87 6.4 43.5 0.00 0.00 0.00 34 1017.1
20260505060532 12 78 8.0 43.5 0.00 0.00 0.00 32 1017.1
20260505060031 12 89 9.7 25.7 0.00 0.00 0.00 33 1017.1
20260505055532 12 168 9.7 25.7 0.00 0.00 0.00 32 1016.9
20260505054532 13 14 11.3 24.1 0.00 0.00 0.00 32 1016.8
20260505053531 13 157 9.7 30.6 0.00 0.00 0.00 31 1016.9
20260505053032 13 31 11.3 29.0 0.00 0.00 0.00 32 1017.0
20260505052532 13 235 9.7 29.0 0.00 0.00 0.00 31 1017.0
20260505052032 13 106 6.4 35.4 0.00 0.00 0.00 31 1017.1
20260505051032 13 134 9.7 24.1 0.00 0.00 0.00 32 1017.4
20260505050532 13 87 8.0 20.9 0.00 0.00 0.00 32 1017.1
20260505041502 13 241 8.0 30.6 0.00 0.00 0.00 31 1017.4
20260505040502 13 125 9.7 25.7 0.00 0.00 0.00 31 1017.5
20260505040004 13 289 8.0 24.1 0.00 0.00 0.00 31 1017.8
20260505035503 14 103 9.7 24.1 0.00 0.00 0.00 31 1017.8
20260505034003 14 118 12.9 20.9 0.00 0.00 0.00 31 1018.0
20260505033459 14 86 9.7 19.3 0.00 0.00 0.00 31 1017.9
20260505032953 14 102 6.4 25.7 0.00 0.00 0.00 30 1017.8
20260505032451 14 68 12.9 25.7 0.00 0.00 0.00 30 1017.4
20260505031947 14 97 6.4 19.3 0.00 0.00 0.00 31 1017.4
20260505031440 14 69 6.4 16.1 0.00 0.00 0.00 31 1017.4
20260505030936 14 148 6.4 27.4 0.00 0.00 0.00 32 1017.4
20260505030435 14 66 9.7 27.4 0.00 0.00 0.00 31 1017.1
20260505025932 14 124 11.3 27.4 0.00 0.00 0.00 31 1017.0